TimeMST,TemperatureF,Dew PointF,Humidity,Sea Level PressureIn,VisibilityMPH,Wind Direction,Wind SpeedMPH,Gust SpeedMPH,PrecipitationIn,Events,Conditions,WindDirDegrees,DateUTC
12:53 AM,28.9,26.1,89,30.14,10.0,Calm,Calm,-,N/A,,Overcast,0,2013-11-30 07:53:00
1:53 AM,28.0,25.0,88,30.14,10.0,Calm,Calm,-,N/A,,Overcast,0,2013-11-30 08:53:00
2:53 AM,28.9,26.1,89,30.15,10.0,Calm,Calm,-,N/A,,Overcast,0,2013-11-30 09:53:00
3:53 AM,30.9,27.0,85,30.16,10.0,SW,5.8,-,0.00,,Overcast,230,2013-11-30 10:53:00
4:53 AM,30.9,28.0,89,30.17,10.0,Calm,Calm,-,0.00,,Overcast,0,2013-11-30 11:53:00
5:53 AM,30.9,27.0,85,30.18,10.0,Calm,Calm,-,N/A,,Overcast,0,2013-11-30 12:53:00
6:53 AM,30.9,28.0,89,30.20,10.0,Calm,Calm,-,N/A,,Overcast,0,2013-11-30 13:53:00
7:53 AM,30.0,28.0,92,30.22,10.0,Calm,Calm,-,N/A,,Overcast,0,2013-11-30 14:53:00
8:53 AM,32.0,28.0,85,30.23,10.0,NE,3.5,-,N/A,,Overcast,50,2013-11-30 15:53:00
9:53 AM,33.1,28.0,82,30.22,10.0,Calm,Calm,-,N/A,,Mostly Cloudy,0,2013-11-30 16:53:00
10:53 AM,36.0,28.9,76,30.21,10.0,Calm,Calm,-,N/A,,Clear,0,2013-11-30 17:53:00
11:53 AM,39.0,28.9,67,30.19,10.0,Calm,Calm,-,N/A,,Clear,0,2013-11-30 18:53:00
12:53 PM,41.0,30.0,65,30.17,10.0,Calm,Calm,-,N/A,,Clear,0,2013-11-30 19:53:00
1:53 PM,42.1,30.9,65,30.15,10.0,Calm,Calm,-,N/A,,Mostly Cloudy,0,2013-11-30 20:53:00
2:53 PM,39.9,30.9,70,30.14,10.0,Calm,Calm,-,N/A,,Overcast,0,2013-11-30 21:53:00
3:53 PM,37.9,30.0,73,30.14,10.0,Calm,Calm,-,N/A,,Overcast,0,2013-11-30 22:53:00
4:53 PM,35.1,28.9,78,30.15,10.0,Calm,Calm,-,N/A,,Overcast,0,2013-11-30 23:53:00
5:53 PM,34.0,28.9,82,30.15,10.0,Calm,Calm,-,N/A,,Overcast,0,2013-12-01 00:53:00
6:53 PM,34.0,30.0,85,30.14,10.0,East,6.9,-,N/A,,Overcast,80,2013-12-01 01:53:00
7:53 PM,32.0,28.9,88,30.14,9.0,Calm,Calm,-,N/A,,Overcast,0,2013-12-01 02:53:00
8:53 PM,33.1,28.9,85,30.12,9.0,East,6.9,-,N/A,,Overcast,90,2013-12-01 03:53:00
9:53 PM,32.0,28.9,88,30.11,9.0,NE,4.6,-,N/A,,Mostly Cloudy,50,2013-12-01 04:53:00
10:53 PM,32.0,28.9,88,30.10,8.0,NE,8.1,-,N/A,,Mostly Cloudy,50,2013-12-01 05:53:00
11:53 PM,30.9,28.9,92,30.09,7.0,East,3.5,-,N/A,,Overcast,80,2013-12-01 06:53:00